Rbgn^[z[y[W
メイン
   新天体発見情報
     Comet C/2017 F2 (PANSTARRS)
投稿するにはまず登録を

フラット表示 前のトピック | 次のトピック
投稿者 スレッド
佐藤裕久
投稿日時: 2017-4-20 2:58
モデレータ
登録日: 2005-6-12
居住地: 日本
投稿: 1810
オンライン
Comet C/2017 F2 (PANSTARRS)

E. Lillyと R. Weryk (ハワイ大学天文学研究所)の通報によると、3月31日、Haleakalaにある1.8-m 
Pan-STARRS1望遠鏡で得た画像に彗星を発見した。
この天体はソフトで、半値全幅(FWHM)は1".7、(比較した隣接する恒星は1".4)であった。
南西に数秒伸びた非常にかすかな尾の痕跡がある。
M. Micheliと R. J. Wainscoatによると、4月1.26日UT、Wainscoatと D. Woodworthが、Mauna Kea
にある3.6-m Canada-France-Hawaii Telescopeで得た3枚の60秒gri-フィルター確認露出では、西側に
広い尾をもつ明確な彗星活動が見られた。
小惑星センターのPCCP webpageに公表後、R. S. McMillan (Kitt Peak, Spacewatch 1.8-m f/2.7 反射
望遠鏡)が彗星状と観測した。

発見位置は次のとおり、

     2017 UT             R.A. (2000) Decl.       Mag.
     Mar. 31.40889   12 01 22.22   +46 20 42.9   21.2
          31.42334   12 01 21.75   +46 20 40.9   21.6
          31.43782   12 01 21.32   +46 20 38.9   21.0

暫定楕円軌道要素と位置推算表は次のとおり、

Orbital elements:
    C/2017 F2 (PANSTARRS)
Epoch 2017 Oct. 14.0 TT = JDT 2458040.5
T 2017 Oct. 6.56817 TT                                  MPCW
q   7.0296491            (2000.0)            P               Q
z  +0.0041515      Peri.  130.95626     -0.85885379     -0.29270555
 +/-0.0033752      Node    38.37005     -0.17700864     -0.60048177
e   0.9708163      Incl.   42.62342     +0.48066424     -0.74414052
From 24 observations 2017 Mar. 31-Apr. 6, mean residual 0".4.

    C/2017 F2 (PANSTARRS)
Epoch 2017 Feb. 16.0 TT = JDT 2457800.5
T 2017 Oct. 6.01068 TT                                  MPCW
q   7.0300222            (2000.0)            P               Q
z  +0.0041771      Peri.  130.91354     -0.85863865     -0.29332773
 +/-0.0033752      Node    38.37111     -0.17657029     -0.60062303
e   0.9706351      Incl.   42.62292     +0.48120952     -0.74378143
From 24 observations 2017 Mar. 31-Apr. 6, mean residual 0".4.

Ephemeris:
    C/2017 F2 (PANSTARRS)
Date    TT    R. A. (2000) Decl.     Delta      r     Elong.  Phase   m1
2017 03 07    12 14 17.1 +46 38 33   6.4083  7.1603   136.5     5.5  21.1
...
2017 03 22    12 06 20.9 +46 36 16   6.4275  7.1428   132.9     5.9  21.1
...
2017 03 30    12 02 06.0 +46 23 45   6.4576  7.1339   129.4     6.2  21.1
...
2017 04 05    11 59 03.2 +46 09 04   6.4887  7.1275   126.4     6.5  21.1
2017 04 06    11 58 33.8 +46 06 12   6.4946  7.1265   125.8     6.5  21.1
2017 04 07    11 58 04.7 +46 03 12   6.5006  7.1254   125.3     6.6  21.1
...
2017 04 13    11 55 18.3 +45 42 41   6.5406  7.1193   121.7     6.9  21.1
...
2017 04 21    11 52 01.9 +45 08 55   6.6033  7.1114   116.7     7.3  21.1
...
2017 05 06    11 47 31.6 +43 48 03   6.7449  7.0976   106.5     7.8  21.2

(CBET 4381、MPEC 2017-G56)
フラット表示 前のトピック | 次のトピック

題名 投稿者 日時
 » Comet C/2017 F2 (PANSTARRS) 佐藤裕久 2017-4-20 2:58

投稿するにはまず登録を
 
© 1999-2013 Tsutomu Seki.